This demonstration page uses our WeatherBlox Daily Observations layout. Learn more.

39.92423, -83.80882

Hourly Observations for September 20, 2019

Temp ( °F °C ) Dew Point ( °F °C ) Humidity (%) Winds ( mph kmh ) Pressure ( in mb ) Visibility ( mi km ) Precip ( " mm )
12:56 am 00:56 Mostly Clear 68 20 64 17.8 87 87 SE 7 11 30.09 1019 10 16.09344 0 0
1:56 am 01:56 Mostly Clear 66 18.9 64 17.8 93 93 ESE 6 9 30.12 1020 10 16.09344 0 0
2:56 am 02:56 Mostly Cloudy 66 18.9 64 17.8 93 93 SE 6 9 30.12 1020 10 16.09344 0 0
3:56 am 03:56 Cloudy 68 20 64 17.8 87 87 SE 8 13 30.12 1020 10 16.09344 0 0
4:56 am 04:56 Cloudy 66 18.9 64 17.8 93 93 SE 6 9 30.12 1020 10 16.09344 0 0
5:56 am 05:56 Mostly Clear 63 17.2 63 17.2 100 100 ESE 5 7 30.15 1021 10 16.09344 0 0
6:56 am 06:56 Clear 62 16.7 62 16.7 100 100 ESE 5 7 30.15 1021 10 16.09344 0 0
7:56 am 07:56 Sunny 62 16.7 62 16.7 100 100 undefined N/A 30.15 1021 10 16.09344 0 0
8:56 am 08:56 Sunny 68 20 66 18.9 93 93 VRB 3 6 30.18 1022 10 16.09344 0 0
9:56 am 09:56 Sunny 73 22.8 66 18.9 79 79 SSW 6 9 30.15 1021 10 16.09344 0 0
10:56 am 10:56 Sunny 77 25 67 19.4 71 71 SW 9 15 30.18 1022 10 16.09344 0 0
11:56 am 11:56 Sunny 81 27.2 68 20 65 65 VRB 7 11 30.15 1021 10 16.09344 0 0
12:56 pm 12:56 Partly Cloudy 84 28.9 69 20.6 61 61 SSW 6 9 30.15 1021 10 16.09344 0 0
1:56 pm 13:56 Sunny 85 29.4 69 20.6 59 59 SW 10 17 30.15 1021 10 16.09344 0 0
2:56 pm 14:56 Partly Cloudy 86 30 68 20 55 55 SW 8 13 30.12 1020 10 16.09344 0 0
3:56 pm 15:56 Mostly Sunny 85 29.4 67 19.4 55 55 SSW 8 13 30.12 1020 10 16.09344 0 0
4:56 pm 16:56 Partly Cloudy 87 30.6 65 18.3 48 48 SSW 12 19 30.09 1019 10 16.09344 0 0
5:56 pm 17:56 Sunny 85 29.4 66 18.9 53 53 SW 12 19 30.09 1019 10 16.09344 0 0
6:56 pm 18:56 Sunny 82 27.8 67 19.4 60 60 SSW 8 13 30.12 1020 10 16.09344 0 0
7:56 pm 19:56 Mostly Clear 79 26.1 68 20 69 69 SSW 5 7 30.12 1020 10 16.09344 0 0
8:56 pm 20:56 Mostly Clear 77 25 68 20 74 74 SSW 5 7 30.15 1021 10 16.09344 0 0
9:56 pm 21:56 Clear 75 23.9 68 20 79 79 SSW 5 7 30.15 1021 10 16.09344 0 0
10:56 pm 22:56 Clear 73 22.8 68 20 84 84 SSW 7 11 30.15 1021 10 16.09344 0 0
11:56 pm 23:56 Clear 72 22.2 68 20 87 87 SW 8 13 30.15 1021 10 16.09344 0 0

Powered by AerisWeather